Weather History for Kingman, AZ

Change the Weather History Date:

Friday, April 11, 2014

  Actual Average Record
Temperature  
Mean Temperature 73 °F 57 °F  
Max Temperature 86 °F 72 °F 96 °F (1936)
Min Temperature 59 °F 43 °F 26 °F (1953)
Degree Days  
Heating Degree Days 0 8  
Month to date heating degree days 93 105  
Since 1 July heating degree days 2721 2936  
Cooling Degree Days 8 1  
Month to date cooling degree days 12 4  
Year to date cooling degree days 12 7  
Growing Degree Days 24 (Base 50)    
Moisture  
Dew Point 7 °F    
Average Humidity 10    
Maximum Humidity 14    
Minimum Humidity 5    
Precipitation  
Precipitation 0.00 in 0.02 in 0.64 in (1941)
Month to date precipitation T 0.18  
Year to date precipitation 0.55 3.10  
Sea Level Pressure  
Sea Level Pressure 29.74 in    
Wind  
Wind Speed 14 mph (South)    
Max Wind Speed 32 mph    
Max Gust Speed 47 mph    
Visibility 10 miles    
Events      
T = Trace of Precipitation, MM = Missing Value Source: NWS Daily Summary

Daily Weather History Graph

Daily Weather History Graph

Search for Another Location

Airport:

Trip Planner

Search our weather history database for the weather conditions in past years. The results will help you decide how hot, cold, wet, or windy it might be!

Date:

Astronomy

Apr. 11, 2014 Rise Set
Actual Time 6:08 AM MST 7:05 PM MST
Civil Twilight 5:42 AM MST 7:31 PM MST
Nautical Twilight 5:11 AM MST 8:02 PM MST
Astronomical Twilight 4:40 AM MST 8:33 PM MST
Moon 3:56 PM MST (4/11) 3:58 AM MST (4/11)
Length of Visible Light 13h 48m
Length of Day
12h 56m
Waxing Gibbous, 87% of the Moon is Illuminated
Apr 11
Waxing Gibbous
Apr 15
Full
Apr 22
Last Quarter
Apr 28
New
May 6
First Quarter

Hourly Weather History & Observations

Time (MST) Temp. Dew Point Humidity Pressure Visibility Wind Dir Wind Speed Gust Speed Precip Events Conditions
12:51 AM 61.0 °F -4.0 °F 7% 29.80 in 10.0 mi ENE 3.5 mph - N/A   Clear
1:51 AM 61.0 °F -2.0 °F 8% 29.78 in 10.0 mi ESE 10.4 mph - N/A   Clear
2:51 AM 64.0 °F -0.0 °F 8% 29.77 in 10.0 mi SE 13.8 mph - N/A   Clear
3:51 AM 64.0 °F -0.9 °F 7% 29.77 in 10.0 mi SE 10.4 mph - N/A   Clear
4:51 AM 63.0 °F 1.0 °F 8% 29.77 in 10.0 mi South 9.2 mph - N/A   Clear
5:51 AM 63.0 °F 1.0 °F 8% 29.78 in 10.0 mi SE 13.8 mph - N/A   Clear
6:51 AM 62.1 °F 3.9 °F 10% 29.81 in 10.0 mi SSE 10.4 mph - N/A   Clear
7:51 AM 64.9 °F 7.0 °F 10% 29.82 in 10.0 mi ESE 9.2 mph - N/A   Clear
8:51 AM 71.1 °F 3.9 °F 7% 29.83 in 10.0 mi WSW 5.8 mph - N/A   Clear
9:51 AM 78.1 °F 5.0 °F 6% 29.81 in 10.0 mi SW 9.2 mph - N/A   Clear
10:51 AM 79.0 °F 6.1 °F 6% 29.81 in 10.0 mi WSW 17.3 mph - N/A   Clear
11:51 AM 84.0 °F 5.0 °F 5% 29.79 in 10.0 mi SW 25.3 mph 29.9 mph N/A   Clear
12:51 PM 84.9 °F 10.0 °F 6% 29.77 in 10.0 mi SSW 23.0 mph 31.1 mph N/A   Clear
1:51 PM 86.0 °F 9.0 °F 5% 29.74 in 10.0 mi SSW 23.0 mph 34.5 mph N/A   Clear
2:51 PM 84.9 °F 15.1 °F 7% 29.72 in 10.0 mi SSW 16.1 mph 29.9 mph N/A   Clear
3:51 PM 84.9 °F 9.0 °F 6% 29.70 in 10.0 mi SW 16.1 mph 28.8 mph N/A   Clear
4:51 PM 81.0 °F 9.0 °F 6% 29.70 in 10.0 mi SSW 23.0 mph - N/A   Partly Cloudy
5:51 PM 81.0 °F 9.0 °F 6% 29.69 in 10.0 mi SSW 17.3 mph - N/A   Scattered Clouds
6:51 PM 77.0 °F 10.0 °F 8% 29.69 in 10.0 mi SSW 11.5 mph - N/A   Clear
7:51 PM 75.9 °F 16.0 °F 10% 29.68 in 10.0 mi South 15.0 mph - N/A   Clear
8:51 PM 68.0 °F 12.9 °F 12% 29.68 in 10.0 mi SSE 10.4 mph - N/A   Clear
9:51 PM 66.9 °F 15.1 °F 14% 29.68 in 10.0 mi South 11.5 mph - N/A   Clear
10:51 PM 66.9 °F 12.9 °F 12% 29.66 in 10.0 mi South 11.5 mph - N/A   Clear
11:51 PM 64.9 °F 12.0 °F 13% 29.65 in 10.0 mi South 11.5 mph - N/A   Clear